Regional Weather Roundup
Issued by NWS

Home | Current Version | Previous Version | Graphics & Text | Print | Product List | Glossary On
Versions: 1 2 3 4 5 6 7 8 9 10 11 12 13 14 15 16 17 18 19 20 21 22 23 24 25 26 27 28 29 30 31 32 33 34 35 36 37 38 39 40 41 42 43 44 45 46 47 48 49 50
633
ASUS45 KCYS 221910
RWRWY

WYOMING REGIONAL WEATHER ROUNDUP
NATIONAL WEATHER SERVICE CHEYENNE WY
100 PM MDT WED MAR 22 2017

NOTE:  "FAIR" INDICATES FEW OR NO CLOUDS BELOW 12,000 FEET
WITH NO SIGNIFICANT WEATHER AND/OR OBSTRUCTIONS TO VISIBILITY.

WYZ001-222000-
YELLOWSTONE NATIONAL PARK

CITY           SKY/WX    TMP DP  RH WIND       PRES   REMARKS
LK YELLOWSTONE   N/A     40  29  64 VRB3      29.97S
W YELLOWSTONE  NOT AVBL

$$
WYZ002>013-054>058-071-098>099-222000-
NORTHERN WYOMING

CITY           SKY/WX    TMP DP  RH WIND       PRES   REMARKS
JACKSON        MOSUNNY   45  39  81 CALM      29.94F
CODY           FAIR      61  28  28 W8        29.84F
GREYBULL       FAIR      56  42  59 S7        29.82F
WORLAND        FAIR      58  44  60 CALM      29.82F
SHERIDAN       FAIR      52  40  63 SW6       29.84F
BUFFALO        FAIR      50  38  63 NW7       29.87R
GILLETTE       FAIR      65  37  35 NW14      29.82R
HULETT         FAIR      61  34  36 W12G17    29.83F
NEWCASTLE      FAIR      57  30  35 SE17G26   29.86F

$$
WYZ014>020-022>026-101>103-222000-
CENTRAL WYOMING

CITY           SKY/WX    TMP DP  RH WIND       PRES   REMARKS
BIG PINEY      PTSUNNY   40  37  89 E7        29.99F
PINEDALE       CLOUDY    36  36 100 E8        30.00F WCI  29
DUBOIS         CLOUDY    46  27  46 W12       29.93S
LANDER         CLOUDY    58  35  42 N3        29.86F
RIVERTON       PTSUNNY   54  36  50 E3        29.88F
CASPER         FAIR      63  36  36 W23       29.88F
DOUGLAS        FAIR      62  37  39 VRB6      29.90F

$$
WYZ021-027>030-104>119-222000-
SOUTHERN WYOMING

CITY           SKY/WX    TMP DP  RH WIND       PRES   REMARKS
EVANSTON       PTSUNNY   51  36  56 SW15      29.95F
KEMMERER         N/A     46  36  66 W3        29.99F
FORT BRIDGER   CLOUDY    50  39  66 NE3       30.00S
ROCK SPRINGS   CLOUDY    54  36  50 N9        29.96F
DIXON            N/A     63  24  22 SW14G31   30.00F
RAWLINS        FAIR      63  26  24 SW20G31   29.97F
SARATOGA       FAIR      63  23  22 SW24      29.99F
LARAMIE        FAIR      64  19  17 SW31G41   29.98S
CHEYENNE       FAIR      62  34  35 S13       29.95F
TORRINGTON     FAIR      65  32  29 SE15      29.88F
PINE BLUFFS    FAIR      61  32  33 S16G23    29.96F

$$




USA.gov is the U.S. government's official web portal to all federal, state and local government web resources and services.